Welcome to the New NWS' Forecast!
Most changes are behind the scenes, but click here for differences you might notice.

Regional Weather Roundup (RWR)

Issued by National Weather Service (NWS)

                            
000
ASUS42 KTBW 221217
RWRFL 
FLORIDA REGIONAL WEATHER ROUNDUP
NATIONAL WEATHER SERVICE TAMPA BAY RUSKIN FL
800 AM EDT SAT SEP 22 2018

NOTE: "FAIR" INDICATES FEW OR NO CLOUDS BELOW 12,000 FEET WITH NO
SIGNIFICANT WEATHER AND/OR OBSTRUCTIONS TO VISIBILITY.

FLZ001>010-012>015-112-114-115-221300-
PANHANDLE FLORIDA
  
CITY           SKY/WX    TMP DP  RH WIND       PRES   REMARKS
PENSACOLA      FAIR      77  74  90 NE6       30.02S                  
PENSACOLA NAS  LGT RAIN  79  79 100 CALM      30.02  FOG              
MILTON NAS     FAIR      72  72 100 NE3       30.04  FOG              
CRESTVIEW      FAIR      71  69  93 CALM      30.06R FOG              
VALPARAISO     PTCLDY    74  72  93 N3        30.03R                  
PANAMA CITY    FAIR      73  71  93 NE5       30.03R                  
APALACHICOLA   FAIR      75  75 100 CALM      30.03S                  

STATION/POSITION SKY/WX   TEMP    WIND        PRES    WAVE   SWELL
                          AIR SEA DIR/SP/G            HT/PER HT/PER
                          (F)     (DEG/KT/KT) (MB)    (FT/S) (FT/S)
30.1N   87.6W              84     150/ 10/ 12 1016.2R   2/ 5   2/ 5
29.2N   88.2W                 86  140/ 10/ 12 1015.8R   2/ 5   2/ 5
28.8N   86.0W              82 86   90/  8/ 10   N/A     2/ 4   2/ 4
PANAMA CITY BEAC           76 86   50/  5/  7 1017.4R
TOWER C                    82     100/  6/  7 1017.2R

$$
FLZ011-016>038-118-127-128-134-139-239-221300-
NORTH FLORIDA
  
CITY           SKY/WX    TMP DP  RH WIND       PRES   REMARKS
MARIANNA       FAIR      73  71  93 E3        30.05R                  
TALLAHASSEE    FAIR      74  72  93 NE5       30.06S                  
PERRY          FAIR      73  71  95 CALM      30.08R                  
LIVE OAK       CLEAR     72  72 100 CALM      30.07S FOG              
LAKE CITY        N/A     70  70 100 CALM      30.08S                  
GAINESVILLE    FAIR      75  71  87 CALM      30.09R                  
PALATKA        FAIR      72  72 100 CALM      30.07S                  
MAYPORT NAS    FAIR      78  74  87 CALM      30.07R                  
JACKSONVILLE   FAIR      73  72  96 CALM      30.07R                  
JAX CECIL      PTCLDY    72  70  94 N5        30.07S                  
ST AUGUSTINE   FAIR      76  73  91 NW3       30.08R                  
PALM COAST     PTCLDY    73  72  94 CALM      30.06R                  

STATION/POSITION SKY/WX   TEMP    WIND        PRES    WAVE   SWELL
                          AIR SEA DIR/SP/G            HT/PER HT/PER
                          (F)     (DEG/KT/KT) (MB)    (FT/S) (FT/S)
SHELL POINT      NOT AVBL
KEATON BEACH               73      60/  5/  7 1018.0R
CEDAR KEY                  76      30/  4/  6 1018.1R
FERNANDINA                         30/  2/  3   N/A
30.7N   81.3W                 85                N/A     3/11   2/11
MAYPORT                    77 85  330/  1/  2 1018.7R
31.4N   80.9W              80 84   90/ 10/ 12 1018.3S   3/10   2/10
ST AUGUSTINE               81 83   30/  7/  8 1018.3R

$$
FLZ040-043>046-052-053-057-058-063-144-221300-
INTERIOR CENTRAL FLORIDA
  
CITY           SKY/WX    TMP DP  RH WIND       PRES   REMARKS
OCALA          FAIR      72  71  97 CALM      30.08R                  
LEESBURG       FAIR      76  76 100 N8        30.06R                  
SANFORD        MOCLDY    77  74  90 NE7       30.05S                  
ORLANDO EXEC   FAIR      79  75  87 NE7       30.05S                  
ORLANDO INTL   FAIR      76  75  97 N7        30.05R                  
KISSIMMEE      FAIR      76  74  93 NE3       30.05S                  
WINTER HAVEN   FAIR      77  74  90 NE5       30.05R                  
LAKELAND       CLEAR     73  73 100 CALM      30.04S                  
SEBRING        FAIR      75  72  90 CALM      30.03R                  
OKEECHOBEE       N/A     72  72 100 NE3       30.02R                  

$$
FLZ041-047-054-059-064-141-147-221300-
EAST CENTRAL FLORIDA
  
CITY           SKY/WX    TMP DP  RH WIND       PRES   REMARKS
ORMOND BEACH   MOCLDY    75  75 100 CALM      30.06R FOG              
DAYTONA BEACH  LGT RAIN  75  75 100 CALM      30.06R                  
DELAND         DRIZZLE   73  73 100 CALM      30.06S                  
NEW SMYRNA BEA RAIN      75  75 100 SE8       30.08R                  
TITUSVILLE     CLEAR    N/A N/A N/A CALM      30.05R                  
MELBOURNE      FAIR      81  71  71 NE7       30.03R                  
VERO BEACH     FAIR      78  74  87 NE9       30.03R                  
FT PIERCE      FAIR      77  76  96 CALM      30.02R                  
STUART         LGT RAIN  79  75  89 CALM      30.03R                  

STATION/POSITION SKY/WX   TEMP    WIND        PRES    WAVE   SWELL
                          AIR SEA DIR/SP/G            HT/PER HT/PER
                          (F)     (DEG/KT/KT) (MB)    (FT/S) (FT/S)
28.5N   80.2W              83      70/ 10/ 14 1017.3
28.9N   78.5W              82 85   60/  8/ 12 1018.0R
TRIDENT PIER               77 86   30/  4/  5 1018.8R
28.4N   80.5W                 86                N/A     3/11   2/11
27.5N   80.2W                 83                N/A     4/11   2/11

$$
FLZ050-056-061-142-242-148-248-149-249-151-251-155-255-
160-260-221300-
WEST CENTRAL FLORIDA
  
CITY           SKY/WX    TMP DP  RH WIND       PRES   REMARKS
CRYSTAL RIVER  FAIR      72  72 100 CALM      30.06R                  
BROOKSVILLE    FAIR      74  72  93 NE6       30.05S                  
CLEARWATER AIR FAIR      75  72  88 NE3       30.03R                  
ST PETE CLEARW FAIR      78  74  87 NE10      30.03R                  
TAMPA INTL     MOCLDY    78  73  84 NE5       30.04R                  
TAMPA EXEC     FAIR      73  72  94 CALM      30.04S FOG              
PLANT CITY     FAIR      75  73  94 NE3       30.06S                  
MACDILL AFB    FAIR      76  73  91 E7        30.03R                  
PETER O KNIGHT   N/A    N/A N/A N/A NE6       30.04R                  
ST PETERSBURG  FAIR      80  75  84 NE12      30.01R                  
SARASOTA       FAIR      76  75  97 NE7       30.01R                  
VENICE         FAIR      77  75  94 NE7       30.02R THUNDER          

STATION/POSITION SKY/WX   TEMP    WIND        PRES    WAVE   SWELL
                          AIR SEA DIR/SP/G            HT/PER HT/PER
                          (F)     (DEG/KT/KT) (MB)    (FT/S) (FT/S)
CLEARWATER BEACH           78 88   50/  8/ 11 1016.9R
MIDDLE TAMPA BAY           78      80/  9/ 11 1016.7R
VENICE                     77 85   50/  7/  9   N/A

$$
FLZ066-069-070-075>078-162-262-165-265-221300-
SOUTHWEST FLORIDA AND KEYS
  
CITY           SKY/WX    TMP DP  RH WIND       PRES   REMARKS
PUNTA GORDA    FAIR      76  73  91 NE8       30.03R                  
FT MYERS       FAIR      75  75 100 NE8       29.99S                  
SOUTHWEST INTL FAIR      76  75  97 NE7       30.00S                  
NAPLES         FAIR      77  75  93 NE7       29.98F                  
MARCO ISLAND   FAIR      77  75  93 MISG      29.99F                  
IMMOKALEE        N/A     75  73  94 NE5       30.00F FOG              
KEY WEST NAS   MOCLDY    81  75  82 NE5       29.98R                  
KEY WEST INTL  FAIR      82  75  79 NE5       29.98R                  

STATION/POSITION SKY/WX   TEMP    WIND        PRES    WAVE   SWELL
                          AIR SEA DIR/SP/G            HT/PER HT/PER
                          (F)     (DEG/KT/KT) (MB)    (FT/S) (FT/S)
NAPLES                     77 87   80/  5/  7 1015.3F
26.0N   85.6W              82 85   50/  8/ 10 1015.2
DRY TORTUGAS               82      60/  8/  9 1015.0R
SAND KEY                   82                 1014.9R
SOMBRERO KEY               83      50/  8/ 22 1014.2R
LONG KEY                   84 87  110/  8/  9 1015.1R

$$
FLZ067-068-071>074-168-172>174-221300-
SOUTHEAST FLORIDA 
  
CITY           SKY/WX    TMP DP  RH WIND       PRES   REMARKS
W PALM BEACH   FAIR      79  77  94 N5        30.01R                  
BOCA RATON     MOSUNNY   79  75  89 CALM      30.00R                  
FT LAUDER-EXEC FAIR      80  77  90 N5        30.00R                  
FT LAUDERDALE  FAIR      80  78  94 N5        29.99R                  
POMPANO BEACH  FAIR      81  74  79 N6        30.00R                  
PEMBROKE PINES FAIR      81  78  91 N3        30.01R                  
OPA LOCKA      FAIR      79  75  87 CALM      30.00R                  
MIAMI          PTSUNNY   80  76  87 N3        29.99S                  
WEST KENDALL   FAIR      80  75  84 CALM      29.99R                  
HOMESTEAD      NOT AVBL                                               

STATION/POSITION SKY/WX   TEMP    WIND        PRES    WAVE   SWELL
                          AIR SEA DIR/SP/G            HT/PER HT/PER
                          (F)     (DEG/KT/KT) (MB)    (FT/S) (FT/S)
PORT EVERGLADES            84      80/  3/  5 1015.6S
VIRGINIA KEY               83 88   20/  1/  3 1015.2R
LAKE WORTH                 81 86              1017.2R
FOWEY ROCKS                84 85   60/  6/  7 1016.1R
SETTLEMENT POINT           83     140/  2/  3 1016.5R

$$